Regional Weather Roundup
Issued by NWS Memphis, TN

Home | Current Version | Previous Version | Text Only | Print | Product List | Glossary On
Versions: 1 2 3 4 5 6 7 8 9 10 11 12 13 14 15 16 17 18 19 20 21 22 23 24 25 26 27 28 29 30 31 32 33 34 35 36 37 38 39 40 41 42 43 44 45 46 47 48 49 50
000
ASUS44 KMEG 211710
RWRMEG
MEMPHIS CWA HOURLY WEATHER ROUNDUP
NATIONAL WEATHER SERVICE MEMPHIS TN
1100 AM CST WED FEB 21 2018

...WEST TENNESSEE...

CITY           SKY/WX    TMP DP  RH WIND       PRES   REMARKS
MEMPHIS INTL   LGT RAIN  48  46  93 NE13      30.35R FOG
NWS MEMPHIS      N/A     47 N/A N/A MISG        N/A
JACKSON        LGT RAIN  48  47  96 N13       30.37F
COVINGTON      CLOUDY    45  43  93 NE13      30.38R
SOMERVILLE     CLOUDY    48  48 100 N7G13     30.33S FOG
LEXINGTON      PTSUNNY   54  52  94 N10       30.36R FOG
SAVANNAH       CLOUDY    59  57  94 N10G20    30.33F
DYERSBURG      LGT RAIN  42  41  96 NE15      30.40F
UNION CITY     PTSUNNY   41  39  93 NE13G21   30.40F
PARIS          CLOUDY    45  43  93 N9        30.39F


...EASTERN ARKANSAS...

CITY           SKY/WX    TMP DP  RH WIND       PRES   REMARKS
JONESBORO      LGT RAIN  42  41  96 NE18      30.38S
WEST MEMPHIS   LGT RAIN  44  32  62 NE12      30.35R
BATESVILLE     RAIN      39  38  96 N3        30.44R
NEWPORT        RAIN      41  40  96 N13       30.46R
WALNUT RIDGE   LGT RAIN  40  38  93 N16       30.44R WCI  31
BLYTHEVILLE    LGT RAIN  42  32  67 NE14      30.40S
NW BLYTHEVILLE LGT RAIN  41  39  93 NE12G25   30.40R
SEARCY         LGT RAIN  42  42 100 N13       30.40R FOG
PINE BLUFF     RAIN      47  47 100 N12       30.38R FOG
MONTICELLO     RAIN      53  51  93 N7        30.31R FOG


...NORTH MISSISSIPPI...

CITY           SKY/WX    TMP DP  RH WIND       PRES   REMARKS
TUPELO         PTSUNNY   77  65  66 SE17G23   30.26S
OXFORD         RAIN      57  55  94 NE10G18   30.31F
BATESVILLE       N/A    N/A N/A N/A MISG        N/A
OLIVE BRANCH   LGT RAIN  46  46 100 NE10      30.34R FOG
TUNICA         RAIN      46  46 100 N9        30.36R
CLARKSDALE     CLOUDY    54  54 100 N14       30.30F FOG
CORINTH        RAIN      59  57  94 N8        30.32F
GREENWOOD      CLOUDY    77  67  71 SW15      30.22S
COLUMBUS       PTSUNNY   78  69  73 S15G24    30.27F
STARKVILLE     CLOUDY    77  64  65 S16       30.27F
GOLDEN TRIANGL CLOUDY    77  68  73 SE20G25   30.28F


...SOUTHEAST MISSOURI...

CITY           SKY/WX    TMP DP  RH WIND       PRES   REMARKS
KENNETT        LGT RAIN  41  39  93 NE14G22   30.40R
MALDEN         LGT RAIN  39  36  87 NE14      30.44S WCI  31
WEST PLAINS    CLOUDY    30  28  92 N9        30.46R FOG     WCI  22
POPLAR BLUFF   LGT RAIN  38  35  89 N15       30.46R WCI  29
CAPE GIRARDEAU LGT RAIN  36  33  89 N14       30.45S WCI  27


...NORTHWEST ALABAMA...

CITY           SKY/WX    TMP DP  RH WIND       PRES   REMARKS
MUSCLE SHOALS  FAIR      78  64  61 SW18G28   30.29F


...MIDDLE TENNESSEE...

CITY           SKY/WX    TMP DP  RH WIND       PRES   REMARKS
NASHVILLE      LGT RAIN  59  56  89 N12       30.34R FOG
CLARKSVILLE    LGT RAIN  46  43  89 N12       30.40R
COLUMBIA       CLOUDY    59  59 100 N10       30.29R


...WESTERN KENTUCKY...

CITY           SKY/WX    TMP DP  RH WIND       PRES   REMARKS
PADUCAH        LGT RAIN  40  37  89 NE12      30.43F WCI  33
FORT CAMPBELL  LGT RAIN  45  44  98 N10       30.40S


...CENTRAL ARKANSAS...

CITY           SKY/WX    TMP DP  RH WIND       PRES   REMARKS
LITTLE ROCK    LGT RAIN  44  43  96 N13       30.40R


SKY/WX REPORTED AS FAIR MEANS FEW OR NO CLOUDS BELOW
12 THOUSAND FEET.





USA.gov is the U.S. government's official web portal to all federal, state and local government web resources and services.